Temperature
18 18 18 18 18 18 18 18 18 18 18 18 17 17 17 17 17 17 17 17 17 17 17 17 17 17 17 17 17 17 17 17 16 16 16 16 16 16 16 16 16 16 16
18 18 18 18 18 18 18 18 17 17 18 17 17 17 17 17 17 17 17 17 17 17 17 17 17 17 17 17 17 17 17 17 16 16 16 16 16 16 16 16 16 16 16
18 18 18 18 18 18 17 17 17 17 17 17 17 17 17 17 17 17 17 17 17 17 17 17 17 17 17 17 17 17 17 17 16 16 16 16 16 16 16 16 16 16 15
18 18 18 18 18 18 17 17 17 17 17 17 17 17 17 17 17 17 17 17 17 17 17 17 17 17 17 17 17 16 16 16 16 16 16 16 16 16 16 16 16 16 16
18 18 18 18 17 17 17 17 17 17 17 17 17 17 17 17 17 17 17 17 17 17 17 17 17 17 17 17 16 16 16 16 16 16 16 16 16 16 16 16 16 16 16
18 18 18 17 17 17 17 17 17 17 17 17 17 17 17 17 17 17 17 17 17 17 17 17 17 16 16 16 16 16 16 16 16 16 16 16 16 16 16 16 16 16 16
18 18 18 18 17 17 17 17 17 17 17 17 17 17 17 17 17 17 17 17 17 17 17 17 17 17 16 16 16 16 16 16 16 16 16 16 16 16 16 16 16 16 16
18 18 18 18 17 17 17 17 17 17 17 17 17 16 16 17 17 17 17 17 17 17 17 17 17 17 16 16 16 16 16 16 16 16 16 16 16 16 16 16 15 15 15
18 18 18 17 17 17 17 17 17 17 17 17 17 17 16 16 16 17 17 17 17 17 17 17 17 16 16 16 16 16 16 16 16 16 16 16 16 16 16 15 15 15 15
18 18 18 17 17 17 17 17 17 17 17 17 17 17 17 17 16 16 17 17 17 17 17 16 16 16 16 16 16 16 16 16 16 16 16 16 16 15 15 15 15 15 15
18 18 18 17 17 17 17 17 17 17 17 17 17 17 17 17 16 16 16 17 17 17 17 17 17 16 16 16 16 16 16 16 16 16 16 16 15 15 15 15 15 15 15
18 18 18 18 17 17 17 17 17 17 17 17 17 17 17 17 17 16 16 16 16 17 17 17 17 17 17 16 16 16 16 16 16 16 16 16 15 15 15 15 15 15 15
18 18 18 18 18 17 17 17 17 17 17 17 17 17 17 17 17 16 16 16 16 16 17 17 17 17 17 16 16 16 16 16 16 16 16 15 15 15 15 15 15 15 15
18 18 18 18 18 18 17 17 17 17 17 17 17 17 17 17 17 16 16 16 16 16 16 17 17 17 16 16 16 16 16 16 16 16 16 15 15 15 15 15 15 15 15
18 18 18 18 18 17 17 17 17 17 17 17 17 17 17 17 17 16 16 16 16 16 16 16 16 16 16 16 16 16 16 16 16 16 15 15 15 15 15 15 15 15 14
18 18 18 18 17 17 17 17 17 17 17 17 16 17 17 16 16 16 16 16 16 16 16 16 16 16 16 16 16 16 16 16 16 16 15 15 15 15 15 15 15 14 14
18 18 18 17 17 17 17 17 17 17 16 16 16 16 16 16 16 16 16 16 16 16 16 16 16 16 16 16 16 16 16 16 15 15 15 15 15 15 15 15 14 14 14
18 18 17 17 17 17 17 17 17 16 16 16 16 16 16 16 16 16 16 16 15 15 15 16 16 16 16 16 16 15 15 15 15 15 15 15 15 15 15 14 14 14 14
17 17 17 17 17 17 17 16 16 16 16 16 16 16 16 16 16 16 15 15 15 15 15 15 15 15 15 15 15 15 15 15 15 15 15 15 15 14 14 14 14 14 13
17 17 17 17 17 17 16 16 16 16 16 16 16 15 15 15 15 15 15 15 15 15 15 15 15 15 15 15 15 15 15 15 15 15 14 14 14 14 14 14 14 13 13
17 17 16 16 16 16 16 16 16 16 16 15 15 15 15 15 15 15 15 15 15 15 15 15 15 15 15 15 15 15 14 14 14 14 14 14 14 14 14 13 13 13 13
17 17 16 16 16 16 16 16 16 16 16 15 15 15 15 15 15 15 15 15 15 15 14 14 14 14 14 14 14 14 14 14 14 14 14 14 14 14 13 13 13 13 12
16 16 16 16 16 16 16 16 15 15 15 15 15 15 15 15 15 15 15 15 15 14 14 14 14 14 14 14 14 14 14 14 14 14 13 13 13 13 13 13 13 13 12
16 16 16 16 16 16 15 15 15 15 15 15 15 15 15 15 15 14 14 14 14 14 14 14 14 14 14 14 14 14 13 13 13 13 13 13 13 13 13 13 12 12 12
16 16 16 15 16 15 15 15 15 15 15 15 15 15 15 15 14 14 14 14 14 14 14 14 13 14 14 13 13 13 13 13 13 13 13 12 13 12 12 12 12 12 12
15 15 15 15 15 15 15 15 14 14 14 14 14 14 14 14 14 14 14 14 14 14 14 13 13 13 13 13 13 13 13 13 12 12 12 12 12 12 12 12 12 12 12
Wind_Speed
2 2 2 2 2 2 2 1 1 1 1 1 1 2 3 4 4 5 6 9 10 11 11 10 10 10 10 10 11 10 10 10 10 10 10 10 10 9 9 9 8 8 7
3 3 2 2 2 2 3 2 1 1 1 1 1 1 2 3 4 4 5 6 8 9 10 10 10 10 10 10 10 10 9 9 9 10 11 10 10 10 10 10 9 9 8
4 3 2 2 2 3 3 2 2 2 1 2 1 1 2 3 3 4 4 5 6 8 9 10 10 11 10 10 10 9 9 9 9 9 10 10 11 10 10 10 9 10 10
6 4 3 2 3 2 2 2 2 2 2 2 1 0 1 1 2 3 3 4 4 5 6 8 9 10 10 10 10 10 10 10 9 9 9 9 9 9 9 9 9 9 9
6 5 3 3 3 3 2 3 2 3 2 2 1 0 0 1 1 2 3 4 4 5 5 6 8 9 10 10 10 10 10 10 9 9 9 8 8 9 9 9 9 9 9
6 5 4 3 4 3 2 3 3 3 2 2 1 1 1 0 1 1 2 3 4 5 5 6 6 7 8 9 9 9 10 10 9 9 9 9 8 8 8 9 9 9 9
5 5 3 3 3 3 3 4 3 3 2 3 2 1 2 1 1 1 2 2 3 5 5 6 6 6 6 8 9 9 10 10 10 10 10 10 10 9 8 9 9 9 8
5 5 4 3 4 3 3 4 4 3 2 2 2 1 1 2 1 1 2 3 3 4 5 6 7 7 7 6 7 9 10 10 10 10 10 10 10 10 10 10 9 9 8
5 5 4 4 4 4 4 4 4 5 3 2 2 3 2 2 1 1 1 2 3 3 3 4 6 7 7 7 7 8 10 11 11 11 11 11 10 10 10 10 10 10 10
4 5 5 4 4 4 4 4 4 4 4 3 2 2 2 3 2 1 1 1 2 4 4 4 5 6 8 8 8 9 11 11 11 11 11 11 10 10 10 10 10 10 10
3 4 4 4 4 4 4 4 3 4 3 4 3 2 2 1 2 2 2 2 1 3 4 5 5 6 7 8 8 10 11 12 12 11 11 11 10 10 10 10 10 10 10
2 3 4 4 4 4 4 4 4 5 4 4 3 3 3 3 3 3 4 3 3 3 3 4 5 6 7 8 10 10 12 13 12 12 12 11 10 10 10 10 10 10 10
3 4 4 4 3 4 4 4 4 4 5 5 5 4 4 4 3 3 3 3 3 3 2 3 5 6 7 7 8 11 11 12 12 12 12 11 11 10 10 10 10 10 10
4 4 4 4 4 4 4 4 4 4 4 5 6 5 4 4 4 4 4 3 3 2 3 4 2 5 6 6 8 10 9 11 11 12 11 11 11 11 11 11 10 9 8
4 4 4 4 4 4 4 4 3 4 4 5 5 5 5 4 4 4 4 4 4 4 4 4 3 3 4 6 7 7 8 9 11 11 11 12 11 10 9 9 9 9 8
4 4 4 4 4 4 4 4 3 3 4 4 4 4 4 4 4 4 5 4 4 4 4 3 4 3 3 4 6 7 8 9 10 10 10 10 10 9 8 8 7 7 7
5 5 4 4 4 4 3 3 4 4 4 3 3 4 4 4 4 4 4 4 4 4 5 4 3 3 3 4 3 4 6 6 6 9 10 9 9 9 8 8 8 8 8
4 4 4 4 4 4 3 4 4 4 4 4 4 4 5 4 4 4 4 5 5 5 5 6 3 3 4 4 3 3 3 4 4 6 8 9 9 8 8 8 7 8 8
4 4 4 5 4 4 4 4 4 4 4 5 5 5 5 4 5 4 5 5 5 5 5 5 4 3 3 2 2 2 2 2 2 3 5 7 7 7 7 7 6 7 7
5 5 5 5 5 5 5 4 4 4 4 4 5 5 5 5 6 6 5 6 5 5 5 4 4 3 3 2 2 2 2 1 2 2 3 4 6 6 7 7 7 7 7
5 4 4 4 4 4 5 5 5 5 5 5 4 5 6 6 6 5 5 6 6 5 5 5 4 3 3 2 3 3 3 2 2 2 2 2 3 3 4 7 8 8 9
4 4 5 5 5 5 5 6 5 5 5 5 5 5 5 5 6 7 7 7 8 7 7 6 5 5 5 5 4 4 3 2 2 2 2 3 3 4 4 5 7 9 10
4 4 5 5 5 6 6 6 6 5 5 5 5 5 4 4 5 5 5 6 7 9 9 7 7 7 6 6 5 5 5 5 4 3 2 3 3 4 5 6 8 10 11
4 5 5 5 5 6 6 6 6 5 5 5 5 5 5 5 4 4 4 4 5 5 7 7 7 7 6 5 6 6 6 4 2 2 4 4 3 4 4 5 9 11 11
4 5 5 5 6 6 5 6 5 4 4 5 5 5 5 5 6 5 4 5 4 4 4 5 6 6 6 6 6 4 4 4 4 3 4 3 3 3 3 4 7 10 11
4 3 4 4 5 6 6 6 6 4 5 5 4 5 6 6 6 5 5 5 6 5 3 3 3 4 4 5 7 6 6 6 4 3 4 4 3 2 2 2 3 5 7
Wind_Direction
156 162 160 161 161 161 157 145 136 128 122 122 152 161 172 182 190 197 206 205 197 196 200 201 200 198 200 202 202 206 209 209 210 210 209 210 212 212 211 211 211 210 211
169 168 170 172 184 185 178 173 163 133 110 100 109 154 175 182 192 197 207 205 200 200 204 205 202 203 208 207 206 207 210 212 215 216 216 216 217 219 220 219 217 217 217
174 170 167 181 204 194 176 162 142 114 116 114 98 118 155 175 181 193 202 208 208 209 207 207 208 210 211 211 213 213 212 213 215 217 218 220 219 220 222 223 223 224 224
181 173 173 199 209 180 166 154 143 120 108 110 101 81 117 153 183 192 197 207 209 212 215 214 214 215 217 219 220 218 215 213 214 215 214 215 214 216 218 220 225 224 223
186 180 186 196 190 170 166 169 144 137 139 134 116 51 92 161 196 196 200 206 208 213 218 226 228 223 223 225 222 217 212 213 214 214 217 217 217 220 219 220 222 224 227
189 182 186 189 176 158 163 157 142 133 144 141 106 49 23 246 221 219 222 221 224 223 221 225 231 229 225 224 226 222 214 212 212 213 216 218 221 223 222 222 224 225 227
190 184 186 176 169 172 177 161 145 134 143 132 113 53 16 10 264 242 226 223 230 227 221 222 224 223 224 226 227 225 221 218 216 218 219 220 220 220 219 220 222 222 225
195 193 187 187 179 170 168 165 154 148 167 162 147 124 343 344 337 252 230 227 233 222 221 223 221 221 222 226 228 228 225 223 223 224 223 222 221 220 221 222 221 222 224
197 198 194 190 183 178 185 186 171 168 184 191 174 163 174 226 287 315 251 234 227 222 229 229 230 230 227 227 231 233 230 229 229 230 229 228 225 222 221 222 224 225 225
196 197 193 188 186 185 189 193 179 178 174 195 196 203 205 180 183 276 308 259 235 233 235 234 233 233 231 229 230 232 232 231 232 234 233 235 230 226 226 227 228 228 225
196 192 189 185 188 191 192 187 177 183 188 196 196 190 198 205 201 204 257 275 269 245 237 236 234 232 229 225 229 233 231 231 232 234 232 233 234 233 232 231 232 234 232
199 195 187 191 196 198 197 198 194 195 201 202 206 199 192 194 199 201 230 251 263 267 246 237 234 233 231 227 229 230 229 228 229 230 229 229 233 235 236 235 236 237 236
209 210 196 192 199 204 200 193 193 203 204 205 212 218 218 222 201 193 209 240 257 272 264 246 234 230 231 229 231 230 229 227 227 226 227 228 230 231 232 232 235 237 236
208 195 187 195 200 198 201 191 196 206 205 213 220 219 222 229 214 205 200 203 248 265 253 254 245 229 231 229 233 229 232 228 227 225 225 225 225 226 230 233 236 236 234
198 188 187 197 206 204 202 190 202 212 210 221 225 223 226 230 221 220 210 201 208 247 262 244 236 233 229 233 236 228 229 229 224 223 223 224 224 225 228 230 232 231 231
195 186 192 202 210 209 203 197 209 216 211 227 227 224 230 231 222 218 213 214 215 223 248 243 234 242 233 238 235 227 228 227 226 224 223 222 223 223 224 224 223 222 221
199 198 194 200 207 208 201 197 210 212 217 231 233 227 237 232 227 220 214 212 216 215 240 257 240 235 224 237 241 232 230 227 229 226 222 218 216 215 217 216 217 218 220
202 202 193 197 203 204 199 200 212 215 215 224 234 230 242 240 232 227 221 223 223 217 223 245 244 223 228 232 233 227 224 221 220 220 215 212 210 209 209 210 213 216 217
198 200 194 203 211 210 208 212 216 218 219 223 227 229 237 231 238 234 229 230 228 224 220 228 242 229 229 225 224 225 211 220 219 220 214 207 201 198 199 202 206 213 215
196 204 207 212 213 212 211 213 214 221 229 235 234 234 233 228 235 236 233 230 225 223 219 222 236 237 227 212 195 211 237 234 235 229 208 194 193 200 204 206 206 208 210
206 208 211 219 220 217 220 213 214 224 231 242 248 247 243 238 235 233 234 228 220 221 218 221 230 230 223 204 211 204 223 234 248 212 203 208 205 212 216 216 214 214 214
205 203 210 216 222 231 229 211 210 224 230 237 245 253 254 247 245 240 238 230 218 217 219 219 224 228 228 220 213 208 206 213 244 202 203 238 217 224 222 218 218 214 214
208 213 219 219 230 239 231 221 216 218 228 235 240 244 251 255 249 255 252 243 234 228 217 213 223 228 225 215 202 210 214 219 234 201 188 235 221 233 230 222 217 217 219
213 221 227 228 234 243 231 222 216 219 229 236 238 238 241 254 254 247 246 250 250 247 234 225 228 232 226 212 205 210 213 220 234 212 193 225 222 231 238 228 222 218 220
225 229 229 231 238 249 238 228 215 228 239 246 244 239 236 244 247 231 226 233 244 252 247 229 231 235 231 221 200 191 194 203 234 232 201 209 224 232 239 238 228 218 218
232 241 245 243 239 244 240 228 211 224 241 251 253 249 242 245 248 228 220 226 238 245 239 242 248 251 241 228 203 202 205 211 227 233 198 194 213 205 238 236 227 219 216
Height
1541 1542 1544 1545 1547 1549 1551 1552 1553 1555 1556 1557 1558 1559 1560 1561 1562 1563 1564 1565 1565 1566 1567 1568 1569 1570 1571 1572 1573 1574 1575 1575 1576 1577 1578 1579 1580 1581 1582 1583 1583 1584 1585
1542 1544 1545 1547 1548 1550 1551 1553 1554 1555 1556 1557 1558 1559 1560 1561 1562 1562 1563 1564 1565 1566 1567 1567 1568 1569 1570 1571 1572 1572 1573 1574 1575 1576 1577 1578 1579 1579 1580 1581 1582 1582 1583
1543 1544 1546 1547 1549 1550 1551 1553 1554 1555 1556 1557 1558 1558 1559 1560 1561 1562 1563 1563 1564 1565 1566 1567 1567 1568 1569 1570 1571 1571 1572 1573 1574 1574 1575 1576 1577 1577 1578 1579 1580 1580 1581
1544 1545 1546 1547 1549 1550 1551 1552 1553 1554 1555 1556 1557 1558 1559 1559 1560 1561 1562 1563 1563 1564 1565 1566 1566 1567 1568 1568 1569 1570 1570 1571 1572 1572 1573 1573 1574 1575 1576 1577 1577 1578 1579
1544 1545 1546 1547 1548 1549 1550 1551 1552 1554 1555 1556 1556 1557 1558 1559 1559 1560 1561 1561 1562 1563 1564 1564 1565 1565 1566 1567 1567 1568 1568 1569 1570 1570 1570 1571 1572 1573 1573 1574 1575 1575 1576
1543 1544 1545 1546 1548 1549 1549 1550 1552 1553 1554 1555 1556 1556 1557 1558 1558 1559 1559 1560 1561 1561 1562 1563 1563 1564 1564 1565 1565 1566 1566 1566 1567 1568 1568 1568 1569 1570 1570 1571 1572 1573 1573
1543 1544 1544 1546 1547 1548 1549 1550 1551 1552 1553 1554 1555 1555 1556 1556 1557 1557 1558 1558 1559 1560 1560 1561 1561 1561 1562 1562 1563 1563 1564 1564 1564 1565 1565 1566 1566 1567 1568 1568 1569 1570 1571
1542 1543 1544 1545 1546 1547 1548 1549 1550 1550 1551 1553 1553 1554 1554 1556 1555 1555 1556 1556 1557 1558 1558 1559 1559 1559 1559 1560 1560 1561 1561 1561 1562 1562 1563 1563 1564 1564 1565 1566 1566 1567 1567
1541 1542 1543 1544 1545 1546 1546 1547 1548 1549 1550 1551 1552 1553 1553 1553 1553 1553 1554 1554 1555 1556 1556 1557 1557 1557 1557 1557 1558 1558 1558 1559 1559 1560 1560 1561 1561 1562 1562 1563 1563 1564 1565
1540 1541 1541 1542 1543 1544 1545 1546 1547 1548 1549 1549 1550 1551 1552 1552 1552 1551 1552 1552 1553 1553 1554 1554 1554 1554 1555 1555 1555 1555 1556 1556 1556 1557 1557 1558 1558 1559 1559 1560 1560 1561 1562
1538 1539 1540 1541 1542 1542 1543 1544 1545 1546 1547 1548 1548 1549 1549 1550 1550 1550 1549 1550 1551 1551 1551 1552 1551 1551 1552 1552 1552 1552 1552 1553 1553 1554 1554 1555 1555 1555 1556 1557 1557 1558 1558
1536 1537 1538 1539 1539 1540 1541 1542 1543 1544 1545 1545 1546 1546 1547 1547 1547 1547 1547 1547 1547 1548 1548 1548 1548 1548 1549 1549 1549 1549 1549 1550 1550 1551 1551 1551 1552 1552 1552 1553 1554 1554 1555
1534 1535 1536 1536 1537 1538 1539 1540 1540 1541 1542 1542 1543 1543 1544 1544 1544 1545 1545 1544 1544 1544 1544 1545 1545 1545 1546 1546 1546 1546 1546 1547 1547 1547 1548 1548 1548 1549 1549 1550 1551 1551 1551
1532 1533 1534 1534 1535 1535 1536 1537 1538 1538 1539 1539 1540 1540 1540 1541 1541 1542 1542 1542 1541 1541 1541 1541 1542 1542 1543 1543 1543 1544 1544 1544 1544 1544 1544 1545 1545 1546 1546 1547 1547 1548 1548
1529 1530 1531 1532 1532 1533 1533 1534 1535 1535 1536 1536 1537 1537 1537 1537 1538 1538 1539 1539 1540 1538 1537 1537 1538 1539 1539 1540 1540 1540 1540 1541 1541 1541 1541 1542 1542 1543 1543 1543 1544 1544 1544
1526 1527 1528 1529 1529 1530 1530 1531 1531 1532 1533 1533 1533 1533 1534 1534 1534 1535 1535 1535 1535 1535 1534 1534 1534 1535 1536 1536 1537 1537 1537 1537 1538 1538 1538 1538 1539 1539 1540 1540 1540 1541 1541
1523 1523 1524 1525 1526 1527 1527 1527 1528 1529 1529 1529 1530 1530 1530 1530 1530 1531 1531 1531 1531 1531 1530 1530 1531 1531 1532 1533 1533 1534 1534 1534 1534 1535 1535 1535 1536 1536 1536 1536 1537 1537 1537
1520 1520 1521 1522 1522 1523 1523 1524 1524 1525 1525 1526 1526 1526 1526 1526 1526 1527 1527 1527 1527 1527 1527 1526 1527 1527 1528 1529 1529 1530 1530 1530 1531 1531 1531 1532 1532 1532 1533 1533 1533 1533 1534
1516 1517 1517 1518 1518 1519 1520 1520 1521 1521 1521 1521 1522 1522 1522 1522 1522 1522 1522 1522 1522 1522 1522 1522 1522 1523 1523 1524 1525 1525 1526 1527 1527 1528 1528 1528 1529 1529 1529 1529 1530 1530 1530
1513 1513 1514 1514 1515 1515 1515 1516 1517 1517 1517 1517 1518 1518 1518 1518 1518 1518 1518 1518 1518 1518 1518 1518 1518 1518 1519 1519 1520 1521 1522 1523 1524 1524 1524 1525 1525 1525 1525 1526 1526 1526 1526
1509 1510 1510 1510 1511 1511 1511 1511 1512 1513 1513 1513 1513 1513 1513 1513 1513 1513 1513 1513 1513 1513 1513 1513 1514 1514 1514 1515 1515 1516 1517 1518 1519 1520 1520 1521 1521 1521 1522 1522 1522 1522 1522
1504 1505 1505 1505 1506 1506 1507 1507 1508 1508 1508 1509 1509 1509 1509 1509 1509 1509 1508 1508 1509 1509 1508 1509 1509 1509 1510 1510 1511 1512 1513 1514 1514 1516 1516 1516 1517 1517 1517 1518 1518 1518 1518
1500 1501 1501 1501 1502 1502 1503 1503 1503 1504 1504 1504 1504 1504 1504 1504 1504 1504 1504 1504 1504 1504 1504 1504 1504 1504 1505 1506 1507 1508 1509 1509 1509 1511 1511 1511 1512 1512 1513 1513 1513 1514 1514
1495 1496 1496 1497 1497 1498 1499 1499 1499 1499 1499 1499 1500 1500 1499 1499 1499 1500 1499 1498 1498 1499 1499 1499 1499 1500 1501 1502 1502 1503 1504 1504 1505 1506 1506 1506 1506 1507 1508 1508 1509 1509 1509
1491 1492 1492 1492 1492 1493 1494 1494 1495 1494 1494 1494 1495 1495 1495 1495 1495 1495 1494 1494 1494 1494 1494 1494 1495 1495 1496 1496 1497 1498 1498 1499 1499 1500 1501 1501 1501 1502 1502 1503 1504 1505 1505
1488 1488 1487 1488 1488 1488 1489 1489 1490 1489 1489 1489 1490 1490 1491 1490 1491 1490 1490 1489 1489 1489 1489 1489 1489 1490 1490 1491 1491 1492 1493 1494 1493 1494 1495 1496 1496 1497 1497 1498 1499 1499 1500